Preview of NWS' New Version of Forecast
This preview is not operational and should not be used for support decisions.
Latest weather observations around

Santa Barbara, Santa Barbara Municipal Airport (KSBA)

Using International System of Units (Switch to English Units)
Date/ Time (PDT) Wind (kph) Vis. (km) Weather Sky Cond. Temp (°C) Rel. Humidity Wind Chill (°C) Heat Index (°C) Pressure Precip. (cm)
Air Dwpt 6 hour Altimeter (hPa) Sea level (hPa) 1 hr 3 hr 6 hr
Max Min
Jul 17 10:53 S 11 12.87 Mostly Cloudy SCT010 BKN017 21 17     76%     1014.6 1014.5      
Jul 17 10:30 S 9 14.48 Mostly Cloudy SCT010 BKN017 21 17     76%     1014.6        
Jul 17 09:53 SSE 9 12.87 Cloudy OVC010 19 16     81%     1014.2 1014.3      
Jul 17 08:53 ESE 5 12.87 Cloudy OVC010 19 16     79%     1014.2 1014.1      
Jul 17 07:53 N 9 11.27 Cloudy OVC009 18 16     84%     1013.6 1013.4      
Jul 17 06:53 Calm 11.27 Mostly Cloudy BKN006 16 14     90%     1012.5 1012.5      
Jul 17 06:23 Calm 12.87 Mostly Cloudy BKN006 16 14     93%     1012.2        
Jul 17 05:53 Calm 12.87 Partly Cloudy SCT004 15 13     90%     1011.5 1011.5      
Jul 17 04:53 Calm 12.87 Clear CLR 16 14     93%     1011.2 1011.1      
Jul 17 03:53 SE 9 12.87 Clear CLR 17 14     86%     1010.8 1010.7      
Jul 17 02:53 E 9 12.87 Clear CLR 17 15     87%     1010.5 1010.6      
Jul 17 01:53 Calm 14.48 Clear CLR 16 14     90%     1010.2 1010.1      
Jul 17 00:53 ENE 8 14.48 Clear CLR 18 15     84%     1010.2 1010      
Jul 16 23:53 ESE 5 12.87 Clear CLR 18 16     87%     1009.8 1009.9      
Jul 16 22:53 ESE 8 12.87 Clear   18 16     87%     1009.8 1009.7      
Jul 16 21:53 SE 9 14.48 Clear CLR 18 16     87%     1009.8 1009.6      
Jul 16 20:53 ESE 9 16.09 Clear CLR 18 15     84%     1009.5 1009.4      
Jul 16 19:53 SE 9 16.09 Clear CLR 19 15     78%     1009.2 1009.2      
Jul 16 18:53 SE 9 16.09 Clear CLR 21 15     70%     1009.2 1009.2      
Jul 16 17:53 SSE 15 16.09 Clear CLR 21 16     73%     1009.5 1009.3      
Jul 16 15:53 SSE 15 16.09 Clear CLR 23 15     60%   23 1010.2 1010      
Jul 16 14:53 SSE 15 16.09 Clear CLR 24 16     60%   24 1010.8 1010.6      
Jul 16 13:53 SSW 13 16.09 Clear CLR 24 16     58%   24 1011.2 1011.1      
Jul 16 12:53 SSE 11 16.09 Clear CLR 22 16     68%   22 1011.5 1011.3      
Jul 16 11:53 SSE 11 16.09 Clear CLR 21 16     75%     1011.2 1011.2      
Jul 16 10:53 SSE 11 14.48 Clear CLR 21 16     73%     1011.2 1011.1      
Jul 16 09:53 SSW 9 12.87 Clear CLR 21 16     75%     1010.8 1010.9      
Jul 16 08:53 SE 5 12.87 Clear CLR 20 16     78%     1010.5 1010.5      
Jul 16 07:53 Calm 12.87 Clear CLR 19 16     81%     1010.2 1010.2      
Jul 16 06:53 Calm 12.87 Clear CLR 15 14     93%     1009.8 1009.7      
Jul 16 05:53 WNW 5 12.87 Clear CLR 14 13     93%     1009.5 1009.5      
Jul 16 04:53 Calm 14.48 Clear CLR 15 13     90%     1009.2 1009.2      
Jul 16 03:53 Calm 16.09 Clear CLR 15 13     90%     1009.2 1009      
Jul 16 02:53 Calm 14.48 Clear CLR 15 13     90%     1009.2 1009      
Jul 16 01:53 Calm 16.09 Clear CLR 16 14     90%     1009.5 1009.5      
Jul 16 00:53 Calm 14.48 Clear CLR 16 14     90%     1009.8 1009.6      
Jul 15 23:53 Calm 11.27 Clear CLR 16 15     93%     1009.8 1009.9      
Jul 15 22:53 Calm 12.87 Clear CLR 18 16     87%     1009.8 1009.9      
Jul 15 21:53 SE 8 12.87 Clear   18 16     87%     1009.8 1009.8      
Jul 15 20:53 SE 9 12.87 Clear CLR 18 16     90%     1009.5 1009.5      
Jul 15 19:53 SSE 13 12.87 Clear CLR 19 16     84%     1009.5 1009.3      
Jul 15 18:53 SE 13 14.48 Clear CLR 20 16     78%     1009.5 1009.4      
Jul 15 17:53 SE 17 14.48 Clear CLR 19 16     79%     1009.8 1009.6      
Jul 15 16:53 SSE 15 16.09 Clear CLR 19 16     79%     1010.2 1010.1      
Jul 15 15:53 SSE 11 16.09 Clear CLR 20 16     76%     1010.5 1010.6      
Jul 15 14:53 SSE 13 14.48 Clear CLR 20 16     76%     1011.5 1011.3      
Jul 15 13:53 SSE 15 14.48 Mostly Clear FEW004 20 16     76%     1012.5 1012.4      
Jul 15 12:53 SSW 8 16.09 Partly Cloudy SCT004 21 16     73%     1013.2 1013.1      
Jul 15 11:53 8 14.48 Partly Cloudy SCT004 19 16     81%     1013.6 1013.5      
Jul 15 10:53 SE 13 11.27 Mostly Cloudy BKN004 18 16     87%     1013.9 1013.9      
Jul 15 09:53 SSE 9 4.83 Fog/Mist OVC004 17 16     90%     1013.9 1013.8      
Jul 15 08:58 Calm 4.83 Fog/Mist OVC003 16 16     97%     1013.9        
Jul 15 08:53 S 5 1.61 Fog/Mist OVC003 16 16     97%     1013.9 1013.9      
Jul 15 07:53 Calm 1.61 Fog/Mist OVC002 16 15     93%     1013.9 1013.8      
Jul 15 06:53 Calm 1.61 Fog/Mist OVC002 16 15     96%     1013.2 1013.3      
Jul 15 05:53 Calm 3.22 Fog/Mist OVC002 16 15     96%     1013.2 1013.2      
Jul 15 04:53 ENE 5 8.05 Fog/Mist OVC003 16 15     96%     1013.2 1013.2      
Jul 15 03:53 Calm 8.05 Fog/Mist OVC003 16 15     96%     1013.2 1013.1      
Jul 15 02:53 ESE 11 4.83 Fog/Mist OVC003 16 15     96%     1013.2 1013      
Jul 15 01:53 ESE 11 9.66 Fog/Mist OVC003 16 15     96%     1013.2 1013.2      
Jul 15 00:53 ESE 11 6.44 Fog/Mist OVC003 16 15     96%     1013.6 1013.4      
Jul 14 23:53 ESE 9 8.05 Fog/Mist OVC003 15 14     96%     1013.6 1013.5      
Jul 14 23:20 E 8 8.05 Fog/Mist BKN004 15 14     96%     1013.6        
Jul 14 22:53 SE 8 11.27 Partly Cloudy SCT003 15 14     96%     1013.6 1013.4      
Jul 14 21:53 ESE 8 9.66 Fog/Mist SCT003 15 14     96%     1013.6 1013.5      
Jul 14 21:12 SE 9 11.27 Partly Cloudy SCT003 15 14     96%     1013.2        
Jul 14 20:53 ESE 8 11.27 Mostly Clear FEW003 15 14     93%     1013.2 1013.1      
Jul 14 20:36 SE 5 9.66 Fog/Mist SCT003 14 14     97%     1013.2        
Jul 14 19:53 SE 8 3.22 Fog/Mist BKN002 14 14     97%     1013.2 1013.1      
Jul 14 18:53 SE 8 14.48 Mostly Clear FEW006 16 14     87%     1013.2 1013      
Jul 14 17:53 SW 9 16.09 Mostly Clear FEW008 17 14     81%     1013.2 1013.3      
Jul 14 16:53 W 13 16.09 Mostly Clear FEW006 19 14     75%     1013.9 1013.9      
Jul 14 15:53 WSW 18 16.09 Mostly Clear FEW006 19 14     75%     1014.6 1014.4      
Jul 14 14:53 W 24 12.87 Mostly Clear FEW005 20 15     73%     1014.9 1014.8      
Jul 14 13:53 WSW 17 11.27 Mostly Clear FEW005 20 16     76%     1014.9 1015      
Jul 14 12:53 W 17 12.87 Partly Cloudy SCT004 20 16     76%     1015.6 1015.4      
Jul 14 11:53 SW 11 12.87 Partly Cloudy SCT004 19 16     81%     1015.6 1015.5      
Jul 14 11:14 SW 9 9.66 Fog/Mist SCT004 19 16     81%     1015.6        
Jul 14 11:00 8 8.05 Fog/Mist BKN004 OVC010 18 15     84%     1015.6        
Jul 14 10:53 WSW 8 2.41 Fog/Mist OVC003 17 15     87%     1015.6 1015.5      
Jul 14 09:53 S 5 2.41 Fog/Mist OVC003 17 15     90%     1015.6 1015.4      
Jul 14 08:53 Calm 2.41 Fog/Mist OVC003 16 15     96%     1015.6 1015.4      
Jul 14 08:06 Calm 2.41 Fog/Mist OVC002 15 14     96%     1015.2        
Jul 14 07:53 Calm 6.44 Fog/Mist OVC002 15 15     100%     1015.2 1015.1      
Jul 14 07:49 Calm 6.44 Fog/Mist OVC002 15 15     100%     1015.2        
Jul 14 07:41 SSE 5 4.02 Fog/Mist OVC002 15 14     96%     1015.2        
Jul 14 07:17 Calm 4.83 Fog/Mist OVC002 15 14     96%     1015.2        
Jul 14 06:53 SSE 5 3.22 Fog/Mist OVC002 15 14     96%     1014.9 1014.7      
Jul 14 06:21 Calm 2.82 Fog/Mist OVC002 15 14     96%     1014.6        
Jul 14 06:10 Calm 4.83 Fog/Mist OVC002 15 14     96%     1014.6        
Jul 14 05:53 SE 5 4.02 Fog/Mist OVC002 15 14     96%     1014.2 1014.3      
Jul 14 04:53 Calm 1.61 Fog/Mist VV002 15 14     96%     1014.2 1014.1      
Jul 14 03:53 Calm 0.8 Fog VV002 14 14     100%     1013.9 1013.9      
Jul 14 02:53 SSE 5 0.8 Fog VV002 14 14     100%     1013.9 1013.8      
Jul 14 01:53 S 9 0.8 Fog VV002 14 14     100%     1013.9 1013.8      
Jul 14 00:53 SSE 13 0.8 Fog VV002 15 15     100%     1013.6 1013.6      
Jul 14 00:38 SSE 13 1.21 Fog/Mist VV002 15 15     100%     1013.6        
Jul 14 00:06 SE 13 2.82 Fog/Mist OVC002 16 15     96%     1013.6        
Jul 13 23:53 SE 11 6.44 Fog/Mist OVC003 16 15     96%     1013.2 1013.1      
Jul 13 23:27 SE 8 9.66 Fog/Mist OVC004 16 14     93%     1012.9        
Jul 13 22:53 SE 9 12.87 Mostly Cloudy BKN006 16 14     93%     1012.5 1012.5      
Jul 13 21:53 SSE 5 12.87 Clear CLR 16 15     93%     1011.9 1011.9      
Jul 13 20:53 SSE 8 14.48 Clear CLR 16 14     90%     1011.2 1011      
Jul 13 19:53 WSW 8 16.09 Clear CLR 18 14     78%     1010.5 1010.5      
Jul 13 18:53 WSW 9 16.09 Clear CLR 19 14     73%     1010.5 1010.5      
Jul 13 17:53 WSW 9 16.09 Mostly Clear FEW006 19 14     73%     1010.5 1010.4      
Jul 13 16:53 11 14.48 Mostly Clear FEW007 19 16     79%     1010.8 1010.8      
Jul 13 15:53 SW 13 14.48 Mostly Cloudy BKN007 20 16     78%     1011.2 1011.3      
Jul 13 15:12 SW 11 11.27 Mostly Cloudy BKN007 20 17     81%     1011.9        
Jul 13 14:53 SSW 13 11.27 Partly Cloudy SCT005 21 17     78%     1011.9 1011.8      
Jul 13 13:53 SSE 11 9.66 Haze FEW003 SCT005 SCT010 20 17     81%     1012.2 1012.1      
Jul 13 12:53 11 8.05 Haze FEW003 SCT005 SCT010 20 17     81%     1012.5 1012.4      
Jul 13 11:53 9 8.05 Haze BKN005 19 17     84%     1012.5 1012.3      
Jul 13 11:13 S 8 9.66 Haze OVC005 19 16     84%     1012.2        
Jul 13 10:53 SSE 8 6.44 Haze BKN004 19 16     84%     1012.2 1012.2      
Jul 13 09:53 SSE 9 6.44 Fog/Mist OVC003 17 16     93%     1011.9 1011.7      
Jul 13 08:53 5 6.44 Fog/Mist BKN004 17 16     93%     1011.5 1011.3      
Jul 13 08:10 SSE 9 8.05 Fog/Mist SCT003 SCT007 BKN015 17 15     90%     1011.2        
Jul 13 07:53 ESE 8 8.05 Fog/Mist SCT003 SCT007 17 15     90%     1011.2 1011.1      
Jul 13 07:21 E 5 11.27 Mostly Clear FEW007 17 14     86%     1010.8        
Jul 13 06:53 Calm 9.66 Fog/Mist CLR 16 14     90%     1010.5 1010.5      
Jul 13 05:53 Calm 11.27 Clear CLR 14 13     93%     1009.8 1009.9      
Jul 13 04:53 Calm 9.66 Fog/Mist CLR 15 14     93%     1009.8 1009.6      
Jul 13 02:53 E 9 11.27 Mostly Clear FEW006 16 14     90%     1009.2 1009.2      
Jul 13 02:46 E 9 11.27 Mostly Clear FEW006 16 14     90%     1009.5        
Jul 13 01:53 E 9 11.27 Clear CLR 16 14     90%     1009.2 1009.2      
Jul 13 00:53 ESE 13 12.87 Clear CLR 16 14     90%     1009.2 1009.1      
Jul 12 23:53 E 11 12.87 Clear CLR 16 14     90%     1009.2 1008.9      
Jul 12 22:53 ESE 11 12.87 Clear CLR 17 14     86%     1009.2 1009      
Jul 12 21:53 ESE 13 14.48 Clear CLR 17 14     86%     1008.8 1008.8      
Jul 12 20:53 SE 5 14.48 Clear CLR 17 14     86%     1008.5 1008.3      
Jul 12 19:53 SE 9 12.87 Clear CLR 17 15     87%     1008.5 1008.3      
Jul 12 18:53 Calm 16.09 Clear CLR 19 15     76%     1008.5 1008.4      
Jul 12 17:53 8 16.09 Clear CLR 21 15     70%     1008.5 1008.5      
Jul 12 16:53 W 8 16.09 Clear CLR 23 14     56%   23 1009.2 1009.1      
Jul 12 15:53 SW 13 16.09 Clear CLR 23 14     59%   23 1009.8 1009.8      
Jul 12 14:53 WSW 11 16.09 Clear CLR 22 14     63%   22 1010.5 1010.5      
Jul 12 13:53 SSW 11 16.09 Clear CLR 22 16     68%   22 1011.5 1011.3      
Jul 12 12:53 WSW 9 16.09 Partly Cloudy SCT003 21 15     70%     1011.9 1011.7      
Jul 12 11:53 SSW 11 16.09 Clear CLR 21 15     70%     1012.2 1012.2      
Jul 12 11:00 SSE 11 11.27 Partly Cloudy SCT003 18 15     84%     1012.5        
Jul 12 10:53 SSE 11 8.05 Fog/Mist BKN003 17 15     87%     1012.5 1012.5      
Jul 12 10:40 S 13 2.82 Haze BKN003 18 14     81%     1012.5        
Jul 12 09:53 S 11 16.09 Mostly Clear FEW004 18 15     81%     1012.2 1012.2      
Jul 12 08:53 SSE 15 16.09 Partly Cloudy SCT005 19 16     81%     1012.5 1012.6      
Jul 12 07:53 ENE 11 12.87 Partly Cloudy SCT005 18 16     87%     1012.5 1012.6      
Jul 12 06:53 E 11 12.87 Mostly Clear FEW003 17 15     90%     1012.2 1012      
Jul 12 05:53 WNW 5 14.48 Clear CLR 14 13     93%     1011.5 1011.5      
Jul 12 04:53 Calm 16.09 Clear CLR 16 14     87%     1011.2 1011.1      
Jul 12 03:53 ENE 8 16.09 Clear CLR 17 14     86%     1010.8 1010.9      
Jul 12 02:53 ENE 8 16.09 Clear CLR 17 14     86%     1010.8 1010.8      
Jul 12 01:53 Calm 16.09 Clear CLR 16 14     87%     1011.2 1011.2      
Jul 12 00:53 ENE 5 16.09 Clear CLR 17 14     86%     1011.2 1011.2      
Jul 11 23:53 E 9 14.48 Clear CLR 17 15     87%     1011.2 1011.3      
Jul 11 22:53 Calm 12.87 Clear CLR 17 15     90%     1011.9 1011.7      
Jul 11 21:53 ESE 8 14.48 Clear CLR 17 15     90%     1011.9 1011.9      
Jul 11 20:53 SE 9 16.09 Clear CLR 17 14     86%     1011.5 1011.6      
Jul 11 19:53 ESE 11 14.48 Clear CLR 17 14     84%     1012.2 1012      
Jul 11 18:53 SE 11 14.48 Clear CLR 17 14     84%     1012.5 1012.4      
Jul 11 17:53 SE 13 16.09 Clear CLR 21 15     70%     1012.9 1012.7      
Jul 11 16:53 SW 8 16.09 Clear CLR 21 15     70%     1013.6 1013.4      
Jul 11 15:53 W 15 16.09 Clear CLR 22 14     63%   22 1014.2 1014.2      
Jul 11 14:53 W 17 16.09 Clear CLR 22 15     64%   22 1014.9 1014.7      
Jul 11 13:53 WSW 15 16.09 Clear CLR 21 14     66%     1015.2 1015.3      
Jul 11 12:53 WSW 9 16.09 Mostly Clear FEW002 20 15     73%     1015.9 1015.8      
Jul 11 10:53 SSE 9 9.66 Fog/Mist FEW002 18 15     81%     1016.3 1016.2      
Jul 11 09:53 SSE 18 16.09 Mostly Clear FEW002 19 16     81%     1016.3 1016.2      
Jul 11 08:53 SSE 13 16.09 Clear CLR 19 15     76%     1016.3 1016.3      
Jul 11 07:53 ENE 5 16.09 Clear CLR 18 14     81%     1016.3 1016.1      
Jul 11 06:53 Calm 14.48 Clear CLR 16 14     90%     1015.6 1015.7      
Jul 11 05:53 Calm 16.09 Clear CLR 13 12     93%     1015.2 1015.1      
Jul 11 04:53 NE 5 16.09 Clear CLR 15 13     90%     1014.6 1014.7      
Jul 11 03:53 WNW 5 16.09 Clear CLR 14 13     96%     1014.6 1014.4      
Jul 11 02:53 Calm 16.09 Clear CLR 16 14     90%     1014.6 1014.4      
Jul 11 00:53 Calm 12.87 Clear CLR 16 14     93%     1014.9 1014.9      
Jul 10 23:53 SE 8 16.09 Clear CLR 17 15     90%     1014.9 1014.9      
Jul 10 22:53 ESE 9 16.09 Clear CLR 17 15     90%     1015.6 1015.3      
Jul 10 21:53 E 11 16.09 Clear CLR 17 15     87%     1015.9 1015.8      
Jul 10 20:53 SE 5 16.09 Clear CLR 17 16     90%     1015.2 1015.3      
Jul 10 18:53 Calm 16.09 Clear CLR 21 15     70%     1015.6 1015.6      
Jul 10 17:53 5 16.09 Clear CLR 21 14     68%     1016.3 1016.1      
Jul 10 15:53 SW 11 16.09 Clear CLR 21 14     63%     1016.9 1016.8      
Jul 10 13:53 SW 11 14.48 Clear CLR 20 14     70%     1017.6 1017.5      
Jul 10 11:53 SSW 8 16.09 Mostly Clear FEW003 19 14     73%     1018 1017.9      
Jul 10 10:53 SSE 15 16.09 Partly Cloudy SCT003 17 14     84%     1018.3 1018.2      
Jul 10 09:53 SSE 15 16.09 Clear   17 14     86%     1018.3 1018.1      
Jul 10 09:45 SE 15 6.44 Clear   17 14     84%     1018.3        
Jul 10 08:53 SE 11 6.44 Fog/Mist SCT002 BKN004 15 14     93%     1018 1018      
Jul 10 07:06 Calm 4.83 Fog/Mist OVC001 14 13     93%     1017.3        
Jul 10 06:53 Calm 11.27 Cloudy OVC005 14 13     93%     1017.3 1017.1      
Jul 10 06:09 Calm 11.27 Cloudy OVC005 13 12     93%     1016.9        
Jul 10 05:53 NW 5 9.66 Fog/Mist OVC004 14 13     93%     1017.3 1017      
Jul 10 05:31 Calm 9.66 Clear   14 13     93%     1016.9        
Jul 10 04:53 Calm 11.27 Clear   14 13     93%     1016.3 1016.3      
Jul 10 04:44 Calm 11.27 Mostly Clear FEW004 14 13     93%     1016.3        
Jul 10 04:07 N 8 8.05 Fog/Mist OVC004 14 13     96%     1016.3        
Jul 10 03:53 NNE 9 11.27 Mostly Cloudy BKN005 14 13     93%     1016.3 1016.2      
Jul 10 03:45 NNE 9 12.87 Mostly Cloudy BKN005 14 13     93%     1016.3        
Jul 10 03:26 NE 9 11.27 Mostly Clear FEW008 14 13     93%     1015.9        
Jul 10 02:53 N 5 14.48 Clear CLR 14 12     89%     1016.3 1016.1      
Jul 10 01:53 Calm 12.87 Clear CLR 15 13     90%     1015.9 1015.8      
Jul 10 00:53 E 9 16.09 Clear CLR 15 13     90%     1015.9 1016      
Jul 09 23:53   14.48 Clear CLR 15 13     90%     1016.3 1016.3      
Jul 09 22:53 ESE 9 16.09 Clear CLR 15 13     90%     1016.3 1016.2      
Jul 09 21:53 ESE 9 16.09 Clear CLR 16 13     86%     1016.3 1016.3      
Jul 09 20:53 SE 9 16.09 Clear CLR 15 13     90%     1015.9 1016      
Jul 09 19:53 WSW 8 14.48 Clear CLR 17 13     80%     1015.9 1015.8      
Jul 09 18:53 WSW 15 16.09 Clear CLR 18 13     73%     1015.6 1015.6      
Jul 09 17:53 W 18 16.09 Mostly Clear FEW050 19 13     68%     1015.6 1015.5      
Jul 09 16:53 W 21 16.09 Mostly Clear FEW050 20 13     65%     1015.9 1015.9      
Jul 09 14:53 W 21 16.09 Mostly Clear FEW050 21 14     65%     1016.9 1016.9      
Jul 09 13:53 WSW 18 16.09 Clear CLR 21 14     68%     1017.3 1017.3      
Jul 09 12:39 WSW 13 16.09 Partly Cloudy SCT025 21 14     63%     1018        
Jul 09 11:53 SW 11 16.09 Cloudy OVC025 21 14     65%     1018 1017.9      
Jul 09 10:53 SSW 11 16.09 Cloudy OVC024 19 13     70%     1018 1017.8      
Jul 09 09:53 SSE 8 16.09 Cloudy OVC024 18 14     78%     1018 1017.8      
Jul 09 09:31 SSE 9 14.48 Partly Cloudy SCT026 17 14     81%     1018        
Jul 09 07:53 E 9 11.27 Cloudy OVC007 16 14     87%     1017.3 1017.2      
Jul 09 07:05 Calm 14.48 Mostly Cloudy BKN007 14 13     90%     1016.6        
Jul 09 06:53 Calm 14.48 Partly Cloudy SCT007 14 12     89%     1016.6 1016.4      
Jul 09 04:53 Calm 16.09 Clear CLR 13 12     90%     1015.6 1015.3      
Jul 09 03:53 Calm 16.09 Clear CLR 13 11     89%     1015.2 1015      
Jul 09 02:53 NE 5 16.09 Clear CLR 13 11     87%     1015.6 1015.4      
Jul 09 01:53 Calm 16.09 Clear CLR 13 12     90%     1015.6 1015.5      
Jul 09 00:53 Calm 16.09 Clear CLR 14 12     89%     1015.9 1015.9      
Jul 08 23:53 Calm 16.09 Clear CLR 14 13     90%     1015.9 1016      
Jul 08 22:53 ENE 5 16.09 Clear CLR 15 13     90%     1016.3 1016.1      
Jul 08 21:53 SE 8 14.48 Clear CLR 14 13     90%     1016.3 1016.1      
Jul 08 20:53 Calm 16.09 Clear CLR 16 13     83%     1015.6 1015.4      
Jul 08 19:53 W 9 16.09 Clear CLR 17 13     78%     1015.6 1015.5      
Jul 08 17:53 W 15 16.09 Partly Cloudy SCT035 19 13     66%     1015.2 1015.3      
Jul 08 16:53 W 18 16.09 Partly Cloudy SCT035 20 13     63%     1015.6 1015.4      
Jul 08 14:53 WSW 18 16.09 Mostly Cloudy BKN031 21 13     63%     1015.9 1016      
Jul 08 13:53 W 17 16.09 Cloudy OVC031 20 13     65%     1016.3 1016.3      
Jul 08 12:53 WSW 17 16.09 Cloudy OVC031 21 14     65%     1016.6 1016.4      
Jul 08 11:53 WSW 11 16.09 Cloudy OVC031 19 14     71%     1016.6 1016.4      
Jul 08 10:53 W 13 16.09 Cloudy OVC031 19 14     73%     1016.6 1016.4      
Jul 08 09:53 W 8 16.09 Cloudy OVC031 19 14     73%     1016.3 1016.3      
Jul 08 08:53 W 5 14.48 Cloudy BKN014 OVC027 17 13     78%     1016.6 1016.5      
Jul 08 07:53 Calm 16.09 Cloudy OVC018 17 13     80%     1016.3 1016.1      
Jul 08 06:53 Calm 12.87 Cloudy OVC013 16 14     90%     1015.6 1015.5      
Jul 08 05:53 N 5 12.87 Cloudy OVC018 15 13     90%     1015.2 1015.1      
Jul 08 04:53 Calm 14.48 Cloudy SCT007 OVC019 15 13     90%     1014.9 1014.7      
Jul 08 04:37 Calm 14.48 Cloudy BKN007 OVC020 15 13     90%     1014.6        
Jul 08 04:17 NE 5 16.09 Cloudy SCT008 OVC021 14 13     93%     1014.6        
Jul 08 03:53 NNE 5 16.09 Cloudy OVC007 14 13     90%     1014.6 1014.6      
Jul 08 03:15 NE 5 16.09 Mostly Cloudy BKN007 BKN021 13 12     93%     1014.6        
Jul 08 03:08 NE 5 16.09 Partly Cloudy FEW007 SCT021 13 12     90%     1014.6        
Jul 08 02:53 NE 5 16.09 Clear CLR 13 12     90%     1014.6 1014.6      
Jul 08 01:53 NE 5 16.09 Clear CLR 13 12     93%     1014.6 1014.6      
Jul 08 00:53 NE 5 16.09 Clear CLR 14 12     89%     1014.9 1014.8      
Jul 07 23:53 ENE 5 16.09 Clear CLR 14 12     87%     1014.9 1014.9      
Jul 07 22:53 NE 5 16.09 Clear CLR 14 12     87%     1014.9 1014.8      
Jul 07 21:53 ENE 8 16.09 Clear CLR 16 13     83%     1014.6 1014.6      
Jul 07 20:53 W 8 16.09 Clear CLR 16 13     86%     1014.2 1014.1      
Jul 07 19:53 WSW 11 16.09 Clear CLR 17 13     80%     1013.9 1013.9      
Jul 07 19:15 W 17 16.09 Partly Cloudy SCT023 17 13     78%     1013.9        
Jul 07 18:53 W 13 16.09 Mostly Cloudy BKN023 17 13     78%     1013.9 1014      
Jul 07 17:53 W 17 16.09 Cloudy OVC022 18 13     75%     1014.2 1014      
Jul 07 16:53 W 18 16.09 Cloudy OVC022 18 13     75%     1014.6 1014.4      
Jul 07 15:53   16.09 Cloudy BKN022 OVC027 18 13     73%     1014.9 1014.8      
Jul 07 14:53 W 15 16.09 Cloudy BKN020 OVC027 20 14     70%     1014.9 1015      
Jul 07 13:53 W 15 16.09 Cloudy BKN020 OVC027 19 14     75%     1015.6 1015.6      
Jul 07 13:07 W 13 16.09 Cloudy BKN012 OVC028 18 14     78%     1016.3        
Jul 07 13:00 W 13 16.09 Cloudy OVC021 18 14     81%     1016.3        
Jul 07 12:53 W 13 16.09 Cloudy BKN012 OVC028 18 14     78%     1016.3 1016.1      
Jul 07 11:53 W 8 16.09 Cloudy SCT008 OVC012 18 15     84%     1016.3 1016.1      
Jul 07 10:53 SW 5 9.66 Fog/Mist BKN009 OVC012 17 15     87%     1016.3 1016.2      
Jul 07 09:53 S 8 9.66 Fog/Mist BKN009 OVC012 17 15     87%     1015.9 1015.7      
Jul 07 08:53 SE 5 9.66 Fog/Mist BKN009 17 15     90%     1015.6 1015.6      
Jul 07 06:53 N 11 11.27 Cloudy OVC006 16 14     90%     1014.9 1015      
Jul 07 05:53 NE 9 11.27 Cloudy BKN006 OVC011 16 14     93%     1014.9 1014.9      
Jul 07 04:53 E 5 11.27 Cloudy OVC008 16 14     87%     1014.9 1014.8      
Jul 07 04:40 E 5 12.87 Cloudy BKN008 OVC012 16 14     90%     1014.9        
Jul 07 03:53 SSE 9 11.27 Cloudy OVC010 15 13     90%     1014.6 1014.5      
Jul 07 02:53 SE 9 11.27 Cloudy OVC007 15 14     93%     1014.6 1014.5      
Jul 07 02:12 E 15 11.27 Cloudy OVC006 16 14     90%     1014.6        
Jul 07 01:53 ESE 15 9.66 Cloudy OVC004 16 14     93%     1014.9 1014.8      
Jul 07 00:53 ESE 9 8.05 Fog/Mist OVC004 16 14     93%     1014.6 1014.4      
Jul 06 23:53 ESE 9 6.44 Fog/Mist OVC003 15 14     96%     1014.2 1014.2      
Jul 06 23:04 E 8 9.66 Fog/Mist BKN005 15 14     93%     1014.2        
Jul 06 22:53 E 9 9.66 Fog/Mist BKN004 15 14     93%     1014.2 1014.3      
Jul 06 22:49 E 5 11.27 Partly Cloudy SCT004 15 13     88%     1014.6        
Jul 06 21:53 E 8 12.87 Clear CLR 15 13     90%     1014.6 1014.5      
Jul 06 20:53 SE 8 12.87 Clear CLR 14 13     93%     1014.2 1014.2      
Jul 06 19:53 SE 8 14.48 Clear CLR 15 13     90%     1014.2 1014.1      
Jul 06 19:11 W 8 14.48 Partly Cloudy SCT005 15 13     90%     1014.2        
Jul 06 18:53 5 6.44 Mostly Cloudy BKN005 15 13     90%     1014.2 1014.2      
Jul 06 17:53 WSW 17 11.27 Mostly Cloudy BKN005 16 14     87%     1014.6 1014.6      
Jul 06 17:28 W 17 12.87 Mostly Cloudy BKN005 17 14     81%     1014.9        
Jul 06 16:53 WSW 15 14.48 Partly Cloudy SCT008 18 14     78%     1014.9 1014.9      
Jul 06 15:53 SW 13 14.48 Partly Cloudy SCT012 19 14     75%     1015.6 1015.5      
Jul 06 14:53 WSW 13 16.09 Partly Cloudy SCT012 19 14     73%     1016.3 1016.1      
Jul 06 13:53 SSW 13 16.09 Partly Cloudy FEW010 SCT050 19 14     75%     1016.6 1016.5      
Jul 06 12:53 11 16.09 Mostly Cloudy BKN014 19 14     75%     1016.9 1016.9      
Jul 06 11:58 SSW 15 16.09 Fog/Mist OVC013 19 15     76%     1017.3        
Jul 06 11:53 S 13 11.27 Fog/Mist BKN009 19 15     78%     1017.3 1017.1      
Jul 06 10:53 SSE 11 9.66 Fog/Mist OVC009 18 15     84%     1016.9 1016.9      
Jul 06 09:53 SSE 5 9.66 Fog/Mist OVC005 16 14     90%     1017.3 1017.1      
Jul 06 08:53 SSE 9 11.27 Cloudy OVC006 16 14     90%     1016.9 1017      
Jul 06 07:53 ESE 9 9.66 Fog/Mist OVC006 16 14     93%     1016.9 1016.9      
Jul 06 06:53 E 9 8.05 Fog/Mist OVC006 16 14     90%     1016.3 1016.3      
Jul 06 05:53 E 9 9.66 Fog/Mist OVC006 15 14     93%     1016.3 1016.2      
Jul 06 05:37 ENE 8 9.66 Fog/Mist BKN006 15 14     93%     1015.9        
Jul 06 05:28 E 11 9.66 Fog/Mist SCT006 15 14     93%     1015.9        
Jul 06 04:53 ESE 8 11.27 Clear CLR 14 13     93%     1015.6 1015.6      
Jul 06 03:53 E 9 11.27 Clear CLR 15 14     93%     1015.6 1015.6      
Jul 06 02:53 E 9 9.66 Clear   16 14     90%     1015.2 1015.3      
Jul 06 01:53 E 11 9.66 Fog/Mist OVC005 16 14     93%     1015.9 1015.7      
Jul 06 00:53 E 13 11.27 Cloudy OVC006 16 14     90%     1015.2 1015.3      
Jul 05 23:53 E 11 12.87 Cloudy OVC008 16 14     90%     1015.9 1015.7      
Jul 05 23:35 ESE 9 12.87 Mostly Cloudy BKN008 16 14     90%     1015.9        
Jul 05 23:18 ESE 13 14.48 Partly Cloudy SCT007 16 14     90%     1015.6        
Jul 05 22:53 ESE 11 14.48 Clear CLR 16 14     87%     1015.6 1015.5      
Jul 05 21:53 ESE 17 12.87 Clear CLR 16 14     90%     1014.9 1014.8      
Jul 05 20:53 SE 9 12.87 Clear CLR 16 14     90%     1014.6 1014.4      
Jul 05 19:53 Calm 12.87 Clear CLR 18 14     81%     1014.6 1014.6      
Jul 05 18:53 W 15 16.09 Clear CLR 19 13     68%     1014.9 1014.8      
Jul 05 17:53 W 17 16.09 Clear CLR 20 14     68%     1015.2 1015.1      
Jul 05 16:53 WSW 17 16.09 Clear CLR 19 14     73%     1015.6 1015.4      
Jul 05 15:53 W 11 16.09 Clear CLR 20 14     70%     1016.3 1016.1      
Jul 05 14:53 SW 11 16.09 Clear CLR 21 14     68%     1016.3 1016.2      
Jul 05 13:53 SSW 13 16.09 Clear CLR 20 14     70%     1016.9 1017      
Jul 05 12:53 SW 11 16.09 Mostly Clear FEW014 19 14     73%     1017.3 1017.2      
Jul 05 11:53 S 13 16.09 Partly Cloudy SCT011 19 14     73%     1017.3 1017.2      
Jul 05 11:00 SSE 15 16.09 Mostly Cloudy BKN022 19 14     75%     1017.3        
Jul 05 10:53 SE 11 16.09 Partly Cloudy SCT022 18 14     76%     1017.3 1017.1      
Jul 05 09:53 ESE 18 16.09 Partly Cloudy SCT010 18 14     78%     1016.6 1016.6      
Jul 05 08:53 SE 18 14.48 Partly Cloudy FEW010 SCT026 18 14     81%     1016.3 1016.3      
Jul 05 07:53 SE 13 11.27 Mostly Clear FEW010 17 14     84%     1015.9 1016      
Jul 05 06:53 Calm 11.27 Clear CLR 14 13     90%     1015.2 1015.3      
Jul 05 05:53 Calm 11.27 Clear CLR 13 12     93%     1014.9 1014.9      
Jul 05 04:53 NE 5 14.48 Clear CLR 13 11     89%     1014.6 1014.4      
May 15 11:53 S 13 16.09 Mostly Clear FEW040 17 12     70%     1018.3 1018.1      
May 15 01:53 Calm 16.09 Clear   11 8     83%     1015.2 1015.1      
May 14 16:53 W 24 16.09 Clear CLR 18 9     56%     1014.6 1014.3      
May 14 13:53   16.09 Clear CLR 19 10     56%     1015.9 1015.8      
May 12 22:53 W 13 16.09 Cloudy OVC042 14 12     84%     1016.3 1016.1      
May 12 00:53 Calm 16.09 Cloudy OVC019 14 11     81%     1011.9 1011.6      
May 11 17:53 W 11 16.09 Cloudy OVC018 14 11     78%     1009.5 1009.5      
May 11 08:53 SSW 9 12.87 Cloudy OVC026 15 12     81%     1011.5 1011.5      
Jun 11 20:53 WNW 21 16.09 Clear CLR 16 6     51%     1013.6 1013.6      
Jun 11 19:53 NNW 26 16.09 Clear CLR 17 5     45%     1013.2 1013.2      
Jun 10 01:53 E 9 16.09 Clear CLR 16 11     75%     1011.2 1011.2      
Jun 09 14:53   16.09 Partly Cloudy FEW004 SCT040 21 16     75%     1012.9 1013      
Jun 08 20:33 SE 18 16.09 Clear CLR 17 13     78%     1012.5        
Jun 08 09:04 WSW 9 16.09 Partly Cloudy SCT030 18 13     75%     1016.3        
Jun 08 04:53 Calm 16.09 Cloudy FEW010 OVC019 15 14     93%     1015.6 1015.4      
Jun 07 23:53 Calm 16.09 Cloudy OVC019 16 14     87%     1015.2 1015      
Jun 07 22:53 W 11 16.09 Cloudy OVC020 15 14     93%     1015.2 1015.1      
Jun 07 15:53 W 15 16.09 Cloudy OVC023 18 14     78%     1014.2 1014.2